Voltar ao catálogo

STARLINK-36225

AtivoComunicaçõesVLEO
NORAD 67207·PAYLOAD·🇺🇸 United States

Lançado Dec 17, 2025 de Vandenberg Space Force Base

Loading…

Próximas Passagens (próximas 24 horas)

TLE

AtualizadoSource: CelesTrak SupGP

Época: Sep 15, 2026, 03:20 UTC

1 67207C 25304R   26258.13937500 -.00089483  00000+0 -74887-2 0  2584
2 67207  70.0014  56.8365 0002625 266.0445   0.7177 14.98429925    17

Acompanhe STARLINK-36225 em tempo real com AllMySat

Download on the App Store